Location: ??????
(38.0131°N, 23.7723°E)
Time: 05:15:53
(UTC+00:00)

SL-8 R/B - Pass Details

Date: 17 October 2021
Orbit: 656 x 667 km, 48.4° (Epoch: 28 November)

Event Time Altitude Azimuth Distance (km) Brightness Sun altitude
Rises 17:37:31 0° 251° (WSW) 2,976 8.1 -23.0°
Reaches altitude 10° 17:39:54 10° 256° (WSW) 2,068 7.2 -23.5°
Maximum altitude 17:44:34 52° 333° (NNW) 825 4.3 -24.4°
Enters shadow 17:45:32 44° 12° (NNE) 916 4.3 -24.6°
